{"data":{"norad_id":65933,"epoch":"2026-09-20T17:01:16.988160Z","epoch_age_seconds":84988,"freshness":"FRESH","line1":"1 65933U 25225Z   26263.70922440  .00018442  00000+0  55548-3 0  9997","line2":"2 65933  53.1585 336.4877 0001220  91.8193 268.2949 15.34407612 54315","mean_motion":15.34407612,"eccentricity":0.000122,"inclination_deg":53.1585,"raan_deg":336.4877,"arg_perigee_deg":91.8193,"mean_anomaly_deg":268.2949,"bstar":0.00055548,"rev_number":5431,"period_min":93.847292514605,"perigee_km":461.84603608335,"apogee_km":463.51519558161,"semimajor_km":6840.8176158325,"source":"CELESTRAK","updated_at":"2026-09-21T09:00:35.766969Z"}}